Location: Soapstone Prairie Natural Area
(40.9437°N, 105.0829°W)
Time: 17:21:56
(UTC-06:00)

ISS - Visible Passes

Search period start: 03 August 2015 00:00
Search period end: 13 August 2015 00:00
Orbit: 401 x 403 km, 51.6° (Epoch: 03 August)

Date Brightness Start Highest point End Pass type
(mag) Time Alt. Az. Time Alt. Az. Time Alt. Az.
03 Aug 0.0 00:03:51 10° NNW 00:05:23 13° N 00:05:34 13° N visible
03 Aug -1.4 21:31:52 10° W 21:34:51 32° NNW 21:37:50 10° NE visible
03 Aug -0.1 23:10:18 10° NW 23:12:03 14° N 23:13:46 10° NNE visible
04 Aug -2.5 20:38:31 10° WSW 20:41:43 54° NNW 20:44:56 10° NE visible
04 Aug -0.3 22:16:36 10° NW 22:18:43 16° NNW 22:20:49 10° NNE visible
04 Aug 0.0 23:54:26 10° NNW 23:55:40 13° N 23:55:40 13° N visible
05 Aug -0.6 21:22:53 10° WNW 21:25:24 20° NNW 21:27:55 10° NNE visible
05 Aug -0.2 23:01:14 10° NNW 23:02:47 13° N 23:04:19 10° NNE visible
06 Aug -0.3 22:07:44 10° NW 22:09:23 13° N 22:11:03 10° NNE visible
06 Aug -0.1 23:44:38 10° NNW 23:45:35 14° NNW 23:45:35 14° NNW visible
07 Aug -0.4 21:14:00 10° NW 21:16:01 15° NNW 21:18:00 10° NNE visible
07 Aug -0.5 22:51:39 10° NNW 22:53:27 14° N 22:54:15 13° NNE visible
08 Aug -0.4 21:58:30 10° NNW 22:00:03 13° N 22:01:37 10° NNE visible
08 Aug -0.1 23:34:39 10° NW 23:35:29 15° NNW 23:35:29 15° NNW visible
09 Aug -0.4 21:05:02 10° NNW 21:06:38 13° N 21:08:14 10° NNE visible
09 Aug -0.8 22:41:45 10° NNW 22:44:02 18° NNE 22:44:08 18° NNE visible
10 Aug -0.6 21:48:46 10° NNW 21:50:39 14° N 21:52:33 10° NE visible
10 Aug -0.2 23:24:38 10° NW 23:25:22 15° NW 23:25:22 15° NW visible
11 Aug -0.5 20:55:38 10° NNW 20:57:13 13° N 20:58:49 10° NNE visible
11 Aug -1.3 22:31:41 10° NW 22:34:03 25° N 22:34:03 25° N visible
12 Aug -1.0 21:38:45 10° NNW 21:41:09 19° NNE 21:42:44 14° NE visible
12 Aug -0.2 23:14:41 10° NW 23:15:18 15° NW 23:15:18 15° NW visible
